[Iaude] MPEC N109: 2024 NN2 [a=1.29,e=0.78,i=38.5,H=19.1]
    mpec at cfa.harvard.edu 
    mpec at cfa.harvard.edu
       
    Tue Jul  9 06:38:38 EDT 2024
    
    
  
M.P.E.C. 2024-N109                                 Issued 2024 July 9, 10:36 UT
     The Minor Planet Electronic Circulars contain information on unusual
         minor planets, routine data on comets and natural satellites,
         and occasional editorial announcements.  They are published
    on behalf of Division F of the International Astronomical Union by the
          Minor Planet Center, Smithsonian Astrophysical Observatory,
                          Cambridge, MA 02138, U.S.A.
			  
             Prepared using the Tamkin Foundation Computer Network
                              MPC at CFA.HARVARD.EDU
            URL https://www.minorplanetcenter.net/    ISSN 1523-6714
                                    2024 NN2                                    
Observations:
     K24N02N* C2024 07 06.35735316 32 00.989-22 50 29.07         21.14wXEN109F52
     K24N02N  C2024 07 06.36524516 32 00.173-22 50 17.40         21.22wXEN109F52
     K24N02N  C2024 07 06.37313416 31 59.350-22 50 05.78         20.85wXEN109F52
     K24N02N $C2024 07 06.90517416 31 08.407-22 37 06.68               VEN109J04
     K24N02N $C2024 07 06.91343916 31 07.589-22 36 54.88               VEN109J04
     K24N02N KC2024 07 08.41958016 28 52.606-22 01 24.56         20.2 GVEN109474
     K24N02N KC2024 07 08.42681816 28 51.962-22 01 14.63         20.2 GVEN109474
     K24N02N KC2024 07 08.43405716 28 51.310-22 01 04.69         20.3 GVEN109474
     K24N02N KC2024 07 08.44129316 28 50.659-22 00 53.82         20.4 GVEN109474
     K24N02N KC2024 07 08.44852516 28 50.143-22 00 45.54         20.1 GVEN109474
     K24N02N KC2024 07 08.45576316 28 49.430-22 00 35.06         20.8 GVEN109474
     K24N02N KC2024 07 08.87464 16 28 14.67 -21 51 22.9          20.2 VqEN109126
     K24N02N KC2024 07 08.88742 16 28 13.58 -21 51 06.0          20.2 VqEN109126
     K24N02N KB2024 07 08.93194016 28 09.90 -21 50 08.0          19.6 GXEN109958
     K24N02N KB2024 07 08.94019516 28 09.19 -21 49 56.8                XEN109958
     K24N02N KB2024 07 08.94847116 28 08.55 -21 49 44.9          19.9 GXEN109958
     K24N02N KC2024 07 09.21527 16 27 47.15 -21 43 50.3          21.4 RVEN109291
     K24N02N KC2024 07 09.22397 16 27 46.44 -21 43 38.9          21.0 RVEN109291
     K24N02N KC2024 07 09.23270 16 27 45.69 -21 43 27.3          21.2 RVEN109291
     K24N02N KC2024 07 09.41327116 27 31.591-21 39 17.78         21.1 GVEN109474
     K24N02N KC2024 07 09.42050716 27 30.982-21 39 07.96         21.2 GVEN109474
     K24N02N KC2024 07 09.42774016 27 30.410-21 38 58.60         21.8 GVEN109474
Observer details:
126 Monte Viseggi.  Observers L. Sannino, A. Mancuso, S. Mercanti, G.
    Tavaglione.  Measurers L. Sannino, A. Mancuso.  0.40-m f/7.5 reflector +
    CCD.
291 LPL/Spacewatch II.  Observer T. H. Bressi.  1.8-m f/2.7 reflector + CCD.
474 Mount John Observatory, Lake Tekapo.  Observers A. C. Gilmore, P. M.
    Kilmartin.  Measurer P. M. Kilmartin.  0.6-m f/6.3 Reflector + CCD.
958 Observatoire de Dax.  Observer P. Dupouy.  0.50-m f/4.5 Reflector + CMO.
F52 Pan-STARRS 2, Haleakala.  Observers J. Herman, T. Lowe, P. Minguez, A.
    Schultz, I. Smith.  Measurers K. Chambers, T. de Boer, J. Fairlamb, H.
    Gao, M. Huber, C.-C. Lin, E. Magnier, Y. Ramanjooloo, R. Wainscoat, R.
    Weryk.  1.8-m Ritchey-Chretien + CCD.
J04 ESA Optical Ground Station, Tenerife.  Observers P. Ruiz, M. Micheli, F.
    Ocana, L. Conversi.  Measurers F. Ocana, M. Micheli, R. Kresken.
    1.0-m f/4.4 reflector + CCD.
Orbital elements:
2024 NN2                                                 Earth MOID = 0.2577 AU
Epoch 2024 Mar. 31.0 TT = JDT 2460400.5                 MPC                     
M   8.49302              (2000.0)            P               Q                  
n   0.67018328     Peri.  205.23461     -0.33586732     -0.70691750             
a   1.2932237      Node   270.13970     +0.93473690     -0.16875510             
e   0.7752799      Incl.   38.49639     +0.11601752     -0.68686925             
P   1.47           H   19.16          G   0.15           U   9                  
Residuals in seconds of arc
240706 F52  0.1+  0.1+    240708 474  0.3-  1.0+    240709 291  0.2-  0.1+
240706 F52  0.0   0.0     240708 474  1.3+  0.6-    240709 291  0.1+  0.0
240706 F52  0.1-  0.1-    240708 474  0.3+  0.0     240709 291  0.2-  0.0
240706 J04  0.0   0.1+    240708 126  0.4-  1.1+    240709 474  0.2+  0.2-
240706 J04  0.0   0.1-    240708 126  0.4-  0.8+    240709 474  0.0   0.2+
240708 474  0.1+  0.1-    240708 958  0.3-  0.7-    240709 474  0.3+  0.1+
240708 474  0.1+  0.0     240708 958  0.4-  0.5-
240708 474  0.2-  0.0     240708 958  0.4+  0.3+
Ephemeris:
2024 NN2                 a,e,i = 1.29, 0.78, 38                  q = 0.2906
Date    TT    R. A. (2000) Decl.     Delta      r    Elong.  Phase     V
2024 06 09    18 26 57.4 -39 51 45   0.4662  1.4543   156.4    16.2    19.2
...
2024 06 24    17 03 18.6 -29 17 38   0.5980  1.5990   163.6    10.3    19.7
...
2024 07 02    16 40 21.5 -24 47 50   0.7030  1.6688   151.6    16.9    20.4
...
2024 07 08    16 29 28.8 -22 11 06   0.7928  1.7181   143.1    20.8    20.9
2024 07 09    16 28 04.6 -21 48 28   0.8086  1.7261   141.8    21.4    20.9
2024 07 10    16 26 46.6 -21 26 45   0.8245  1.7340   140.5    21.9    21.0
...
2024 07 16    16 20 53.0 -19 34 06   0.9235  1.7799   133.1    24.7    21.4
...
2024 07 24    16 17 04.3 -17 43 15   1.0632  1.8374   124.2    27.2    21.8
...
2024 08 08    16 18 18.0 -15 38 51   1.3401  1.9345   109.7    29.6    22.5
A. U. Tomatic                (C) Copyright 2024 MPC           M.P.E.C. 2024-N109
    
    
More information about the Iaude
mailing list